Year,Month,Day,Hour,Minute,Value (Times are PST for temperature in C)
2016,06,04,00,00,15.80
2016,06,04,00,01,15.80
2016,06,04,00,02,15.70
2016,06,04,00,03,15.70
2016,06,04,00,04,15.70
2016,06,04,00,05,15.70
2016,06,04,00,06,15.70
2016,06,04,00,07,15.60
2016,06,04,00,08,15.60
2016,06,04,00,09,15.60
2016,06,04,00,10,15.60
2016,06,04,00,11,15.50
2016,06,04,00,12,15.50
2016,06,04,00,13,15.50
2016,06,04,00,14,15.40
2016,06,04,00,15,15.40
2016,06,04,00,16,15.40
2016,06,04,00,17,15.40
2016,06,04,00,18,15.40
2016,06,04,00,19,15.30
2016,06,04,00,20,15.30
2016,06,04,00,21,15.30
2016,06,04,00,22,15.30
2016,06,04,00,23,15.30
2016,06,04,00,24,15.30
2016,06,04,00,25,15.20
2016,06,04,00,26,15.20
2016,06,04,00,27,15.20
2016,06,04,00,28,15.20
2016,06,04,00,29,15.20
2016,06,04,00,30,15.20
2016,06,04,00,31,15.20
2016,06,04,00,32,15.10
2016,06,04,00,33,15.10
2016,06,04,00,34,15.10
2016,06,04,00,35,15.10
2016,06,04,00,36,15.10
2016,06,04,00,37,15.10
2016,06,04,00,38,15.10
2016,06,04,00,39,15.10
2016,06,04,00,40,15.10
2016,06,04,00,41,15.00
2016,06,04,00,42,15.00
2016,06,04,00,43,15.00
2016,06,04,00,44,15.00
2016,06,04,00,45,15.00
2016,06,04,00,46,15.00
2016,06,04,00,47,14.90
2016,06,04,00,48,14.90
2016,06,04,00,49,14.90
2016,06,04,00,50,14.90
2016,06,04,00,51,14.90
2016,06,04,00,52,14.80
2016,06,04,00,53,14.80
2016,06,04,00,54,14.80
2016,06,04,00,55,14.80
2016,06,04,00,56,14.80
2016,06,04,00,57,14.70
2016,06,04,00,58,14.70
2016,06,04,00,59,14.70
2016,06,04,01,00,14.70
2016,06,04,01,01,14.70
2016,06,04,01,02,14.70
2016,06,04,01,03,14.70
2016,06,04,01,04,14.70
2016,06,04,01,05,14.60
2016,06,04,01,06,14.60
2016,06,04,01,07,14.60
2016,06,04,01,08,14.60
2016,06,04,01,09,14.60
2016,06,04,01,10,14.60
2016,06,04,01,11,14.60
2016,06,04,01,12,14.50
2016,06,04,01,13,14.50
2016,06,04,01,14,14.50
2016,06,04,01,15,14.50
2016,06,04,01,16,14.40
2016,06,04,01,17,14.40
2016,06,04,01,18,14.40
2016,06,04,01,19,14.40
2016,06,04,01,20,14.30
2016,06,04,01,21,14.30
2016,06,04,01,22,14.30
2016,06,04,01,23,14.30
2016,06,04,01,24,14.30
2016,06,04,01,25,14.20
2016,06,04,01,26,14.20
2016,06,04,01,27,14.20
2016,06,04,01,28,14.20
2016,06,04,01,29,14.20
2016,06,04,01,30,14.20
2016,06,04,01,31,14.20
2016,06,04,01,32,14.10
2016,06,04,01,33,14.10
2016,06,04,01,34,14.10
2016,06,04,01,35,14.10
2016,06,04,01,36,14.10
2016,06,04,01,37,14.10
2016,06,04,01,38,14.00
2016,06,04,01,39,14.00
2016,06,04,01,40,14.00
2016,06,04,01,41,14.00
2016,06,04,01,42,13.90
2016,06,04,01,43,13.90
2016,06,04,01,44,13.90
2016,06,04,01,45,13.90
2016,06,04,01,46,13.90
2016,06,04,01,47,13.90
2016,06,04,01,48,13.90
2016,06,04,01,49,13.90
2016,06,04,01,50,13.90
2016,06,04,01,51,13.90
2016,06,04,01,52,13.90
2016,06,04,01,53,13.90
2016,06,04,01,54,13.90
2016,06,04,01,55,13.90
2016,06,04,01,56,13.90
2016,06,04,01,57,13.80
2016,06,04,01,58,13.80
2016,06,04,01,59,13.80
2016,06,04,02,00,13.80
2016,06,04,02,01,13.80
2016,06,04,02,02,13.80
2016,06,04,02,03,13.80
2016,06,04,02,04,13.70
2016,06,04,02,05,13.70
2016,06,04,02,06,13.70
2016,06,04,02,07,13.70
2016,06,04,02,08,13.70
2016,06,04,02,09,13.70
2016,06,04,02,10,13.70
2016,06,04,02,11,13.70
2016,06,04,02,12,13.70
2016,06,04,02,13,13.70
2016,06,04,02,14,13.70
2016,06,04,02,15,13.70
2016,06,04,02,16,13.60
2016,06,04,02,17,13.60
2016,06,04,02,18,13.60
2016,06,04,02,19,13.60
2016,06,04,02,20,13.60
2016,06,04,02,21,13.60
2016,06,04,02,22,13.60
2016,06,04,02,23,13.60
2016,06,04,02,24,13.60
2016,06,04,02,25,13.60
2016,06,04,02,26,13.60
2016,06,04,02,27,13.50
2016,06,04,02,28,13.50
2016,06,04,02,29,13.50
2016,06,04,02,30,13.40
2016,06,04,02,31,13.40
2016,06,04,02,32,13.40
2016,06,04,02,33,13.40
2016,06,04,02,34,13.40
2016,06,04,02,35,13.30
2016,06,04,02,36,13.30
2016,06,04,02,37,13.30
2016,06,04,02,38,13.30
2016,06,04,02,39,13.30
2016,06,04,02,40,13.30
2016,06,04,02,41,13.30
2016,06,04,02,42,13.20
2016,06,04,02,43,13.30
2016,06,04,02,44,13.20
2016,06,04,02,45,13.20
2016,06,04,02,46,13.20
2016,06,04,02,47,13.20
2016,06,04,02,48,13.20
2016,06,04,02,49,13.20
2016,06,04,02,50,13.10
2016,06,04,02,51,13.10
2016,06,04,02,52,13.10
2016,06,04,02,53,13.10
2016,06,04,02,54,13.10
2016,06,04,02,55,13.00
2016,06,04,02,56,13.00
2016,06,04,02,57,13.00
2016,06,04,02,58,12.90
2016,06,04,02,59,12.90
2016,06,04,03,00,12.90
2016,06,04,03,01,12.90
2016,06,04,03,02,12.90
2016,06,04,03,03,12.90
2016,06,04,03,04,12.80
2016,06,04,03,05,12.80
2016,06,04,03,06,12.80
2016,06,04,03,07,12.80
2016,06,04,03,08,12.80
2016,06,04,03,09,12.80
2016,06,04,03,10,12.80
2016,06,04,03,11,12.80
2016,06,04,03,12,12.70
2016,06,04,03,13,12.70
2016,06,04,03,14,12.70
2016,06,04,03,15,12.70
2016,06,04,03,16,12.70
2016,06,04,03,17,12.70
2016,06,04,03,18,12.70
2016,06,04,03,19,12.60
2016,06,04,03,20,12.60
2016,06,04,03,21,12.60
2016,06,04,03,22,12.60
2016,06,04,03,23,12.60
2016,06,04,03,24,12.60
2016,06,04,03,25,12.60
2016,06,04,03,26,12.60
2016,06,04,03,27,12.60
2016,06,04,03,28,12.60
2016,06,04,03,29,12.60
2016,06,04,03,30,12.60
2016,06,04,03,31,12.60
2016,06,04,03,32,12.60
2016,06,04,03,33,12.70
2016,06,04,03,34,12.70
2016,06,04,03,35,12.70
2016,06,04,03,36,12.70
2016,06,04,03,37,12.70
2016,06,04,03,38,12.70
2016,06,04,03,39,12.60
2016,06,04,03,40,12.60
2016,06,04,03,41,12.60
2016,06,04,03,42,12.60
2016,06,04,03,43,12.60
2016,06,04,03,44,12.60
2016,06,04,03,45,12.60
2016,06,04,03,46,12.60
2016,06,04,03,47,12.60
2016,06,04,03,48,12.50
2016,06,04,03,49,12.50
2016,06,04,03,50,12.50
2016,06,04,03,51,12.50
2016,06,04,03,52,12.50
2016,06,04,03,53,12.60
2016,06,04,03,54,12.60
2016,06,04,03,55,12.50
2016,06,04,03,56,12.60
2016,06,04,03,57,12.50
2016,06,04,03,58,12.60
2016,06,04,03,59,12.60
2016,06,04,04,00,12.60
2016,06,04,04,01,12.60
2016,06,04,04,02,12.60
2016,06,04,04,03,12.60
2016,06,04,04,04,12.60
2016,06,04,04,05,12.60
2016,06,04,04,06,12.60
2016,06,04,04,07,12.60
2016,06,04,04,08,12.60
2016,06,04,04,09,12.60
2016,06,04,04,10,12.60
2016,06,04,04,11,12.50
2016,06,04,04,12,12.50
2016,06,04,04,13,12.50
2016,06,04,04,14,12.50
2016,06,04,04,15,12.40
2016,06,04,04,16,12.40
2016,06,04,04,17,12.40
2016,06,04,04,18,12.40
2016,06,04,04,19,12.40
2016,06,04,04,20,12.30
2016,06,04,04,21,12.30
2016,06,04,04,22,12.30
2016,06,04,04,23,12.30
2016,06,04,04,24,12.30
2016,06,04,04,25,12.30
2016,06,04,04,26,12.30
2016,06,04,04,27,12.30
2016,06,04,04,28,12.30
2016,06,04,04,29,12.30
2016,06,04,04,30,12.30
2016,06,04,04,31,12.30
2016,06,04,04,32,12.30
2016,06,04,04,33,12.30
2016,06,04,04,34,12.20
2016,06,04,04,35,12.20
2016,06,04,04,36,12.20
2016,06,04,04,37,12.20
2016,06,04,04,38,12.20
2016,06,04,04,39,12.20
2016,06,04,04,40,12.20
2016,06,04,04,41,12.20
2016,06,04,04,42,12.10
2016,06,04,04,43,12.10
2016,06,04,04,44,12.10
2016,06,04,04,45,12.10
2016,06,04,04,46,12.10
2016,06,04,04,47,12.00
2016,06,04,04,48,12.00
2016,06,04,04,49,12.00
2016,06,04,04,50,11.90
2016,06,04,04,51,11.90
2016,06,04,04,52,11.90
2016,06,04,04,53,11.90
2016,06,04,04,54,11.90
2016,06,04,04,55,11.90
2016,06,04,04,56,11.80
2016,06,04,04,57,11.80
2016,06,04,04,58,11.80
2016,06,04,04,59,11.80
2016,06,04,05,00,11.80
2016,06,04,05,01,11.80
2016,06,04,05,02,11.80
2016,06,04,05,03,11.80
2016,06,04,05,04,11.80
2016,06,04,05,05,11.80
2016,06,04,05,06,11.80
2016,06,04,05,07,11.80
2016,06,04,05,08,11.80
2016,06,04,05,09,11.80
2016,06,04,05,10,11.80
2016,06,04,05,11,11.80
2016,06,04,05,12,11.80
2016,06,04,05,13,11.80
2016,06,04,05,14,11.80
2016,06,04,05,15,11.80
2016,06,04,05,16,11.80
2016,06,04,05,17,11.80
2016,06,04,05,18,11.80
2016,06,04,05,19,11.90
2016,06,04,05,20,11.90
2016,06,04,05,21,11.90
2016,06,04,05,22,11.90
2016,06,04,05,23,11.90
2016,06,04,05,24,11.90
2016,06,04,05,25,11.90
2016,06,04,05,26,11.90
2016,06,04,05,27,11.90
2016,06,04,05,28,11.90
2016,06,04,05,29,11.90
2016,06,04,05,30,11.90
2016,06,04,05,31,11.90
2016,06,04,05,32,12.00
2016,06,04,05,33,12.00
2016,06,04,05,34,12.00
2016,06,04,05,35,12.00
2016,06,04,05,36,12.00
2016,06,04,05,37,12.00
2016,06,04,05,38,12.00
2016,06,04,05,39,12.00
2016,06,04,05,40,12.00
2016,06,04,05,41,12.00
2016,06,04,05,42,12.00
2016,06,04,05,43,12.00
2016,06,04,05,44,12.00
2016,06,04,05,45,12.00
2016,06,04,05,46,12.00
2016,06,04,05,47,12.00
2016,06,04,05,48,12.00
2016,06,04,05,49,12.00
2016,06,04,05,50,12.00
2016,06,04,05,51,12.00
2016,06,04,05,52,12.00
2016,06,04,05,53,12.00
2016,06,04,05,54,12.00
2016,06,04,05,55,11.90
2016,06,04,05,56,11.90
2016,06,04,05,57,11.90
2016,06,04,05,58,11.90
2016,06,04,05,59,11.90
2016,06,04,06,00,11.90
2016,06,04,06,01,11.90
2016,06,04,06,02,11.90
2016,06,04,06,03,11.90
2016,06,04,06,04,11.90
2016,06,04,06,05,11.90
2016,06,04,06,06,11.90
2016,06,04,06,07,11.90
2016,06,04,06,08,11.80
2016,06,04,06,09,11.80
2016,06,04,06,10,11.80
2016,06,04,06,11,11.80
2016,06,04,06,12,11.80
2016,06,04,06,13,11.80
2016,06,04,06,14,11.80
2016,06,04,06,15,11.80
2016,06,04,06,16,11.90
2016,06,04,06,17,11.90
2016,06,04,06,18,11.90
2016,06,04,06,19,11.90
2016,06,04,06,20,11.90
2016,06,04,06,21,11.90
2016,06,04,06,22,11.90
2016,06,04,06,23,11.90
2016,06,04,06,24,12.00
2016,06,04,06,25,12.00
2016,06,04,06,26,12.10
2016,06,04,06,27,12.10
2016,06,04,06,28,12.20
2016,06,04,06,29,12.20
2016,06,04,06,30,12.30
2016,06,04,06,31,12.30
2016,06,04,06,32,12.40
2016,06,04,06,33,12.50
2016,06,04,06,34,12.50
2016,06,04,06,35,12.60
2016,06,04,06,36,12.70
2016,06,04,06,37,12.80
2016,06,04,06,38,12.90
2016,06,04,06,39,13.00
2016,06,04,06,40,13.10
2016,06,04,06,41,13.20
2016,06,04,06,42,13.30
2016,06,04,06,43,13.40
2016,06,04,06,44,13.50
2016,06,04,06,45,13.60
2016,06,04,06,46,13.70
2016,06,04,06,47,13.70
2016,06,04,06,48,13.80
2016,06,04,06,49,13.80
2016,06,04,06,50,13.90
2016,06,04,06,51,13.90
2016,06,04,06,52,13.90
2016,06,04,06,53,13.90
2016,06,04,06,54,14.00
2016,06,04,06,55,14.10
2016,06,04,06,56,14.10
2016,06,04,06,57,14.20
2016,06,04,06,58,14.20
2016,06,04,06,59,14.30
2016,06,04,07,00,14.20
2016,06,04,07,01,14.20
2016,06,04,07,02,14.20
2016,06,04,07,03,14.20
2016,06,04,07,04,14.20
2016,06,04,07,05,14.10
2016,06,04,07,06,14.10
2016,06,04,07,07,14.10
2016,06,04,07,08,14.00
2016,06,04,07,09,14.00
2016,06,04,07,10,14.00
2016,06,04,07,11,14.00
2016,06,04,07,12,13.90
2016,06,04,07,13,13.90
2016,06,04,07,14,13.90
2016,06,04,07,15,13.90
2016,06,04,07,16,13.90
2016,06,04,07,17,13.90
2016,06,04,07,18,14.00
2016,06,04,07,19,14.00
2016,06,04,07,20,14.00
2016,06,04,07,21,14.00
2016,06,04,07,22,14.00
2016,06,04,07,23,14.10
2016,06,04,07,24,14.10
2016,06,04,07,25,14.00
2016,06,04,07,26,14.00
2016,06,04,07,27,14.00
2016,06,04,07,28,14.10
2016,06,04,07,29,14.10
2016,06,04,07,30,14.10
2016,06,04,07,31,14.10
2016,06,04,07,32,14.10
2016,06,04,07,33,14.20
2016,06,04,07,34,14.20
2016,06,04,07,35,14.20
2016,06,04,07,36,14.20
2016,06,04,07,37,14.30
2016,06,04,07,38,14.30
2016,06,04,07,39,14.30
2016,06,04,07,40,14.30
2016,06,04,07,41,14.30
2016,06,04,07,42,14.40
2016,06,04,07,43,14.40
2016,06,04,07,44,14.50
2016,06,04,07,45,14.60
2016,06,04,07,46,14.60
2016,06,04,07,47,14.70
2016,06,04,07,48,14.70
2016,06,04,07,49,14.80
2016,06,04,07,50,14.80
2016,06,04,07,51,14.80
2016,06,04,07,52,14.80
2016,06,04,07,53,14.90
2016,06,04,07,54,14.90
2016,06,04,07,55,14.90
2016,06,04,07,56,14.90
2016,06,04,07,57,15.00
2016,06,04,07,58,15.10
2016,06,04,07,59,15.10
2016,06,04,08,00,15.10
2016,06,04,08,01,15.20
2016,06,04,08,02,15.20
2016,06,04,08,03,15.20
2016,06,04,08,04,15.20
2016,06,04,08,05,15.20
2016,06,04,08,06,15.30
2016,06,04,08,07,15.30
2016,06,04,08,08,15.30
2016,06,04,08,09,15.30
2016,06,04,08,10,15.30
2016,06,04,08,11,15.40
2016,06,04,08,12,15.40
2016,06,04,08,13,15.40
2016,06,04,08,14,15.50
2016,06,04,08,15,15.50
2016,06,04,08,16,15.60
2016,06,04,08,17,15.60
2016,06,04,08,18,15.70
2016,06,04,08,19,15.70
2016,06,04,08,20,15.80
2016,06,04,08,21,15.80
2016,06,04,08,22,15.80
2016,06,04,08,23,15.90
2016,06,04,08,24,16.00
2016,06,04,08,25,16.20
2016,06,04,08,26,16.30
2016,06,04,08,27,16.40
2016,06,04,08,28,16.50
2016,06,04,08,29,16.70
2016,06,04,08,30,16.80
2016,06,04,08,31,16.90
2016,06,04,08,32,17.00
2016,06,04,08,33,17.20
2016,06,04,08,34,17.30
2016,06,04,08,35,17.40
2016,06,04,08,36,17.50
2016,06,04,08,37,17.60
2016,06,04,08,38,17.70
2016,06,04,08,39,17.70
2016,06,04,08,40,17.70
2016,06,04,08,41,17.60
2016,06,04,08,42,17.60
2016,06,04,08,43,17.60
2016,06,04,08,44,17.60
2016,06,04,08,45,17.60
2016,06,04,08,46,17.70
2016,06,04,08,47,17.70
2016,06,04,08,48,17.80
2016,06,04,08,49,17.80
2016,06,04,08,50,17.90
2016,06,04,08,51,18.00
2016,06,04,08,52,18.00
2016,06,04,08,53,17.90
2016,06,04,08,54,17.90
2016,06,04,08,55,17.80
2016,06,04,08,56,17.80
2016,06,04,08,57,17.80
2016,06,04,08,58,17.80
2016,06,04,08,59,17.90
2016,06,04,09,00,17.90
2016,06,04,09,01,17.90
2016,06,04,09,02,17.90
2016,06,04,09,03,17.90
2016,06,04,09,04,18.00
2016,06,04,09,05,18.00
2016,06,04,09,06,18.00
2016,06,04,09,07,18.10
2016,06,04,09,08,18.10
2016,06,04,09,09,18.20
2016,06,04,09,10,18.20
2016,06,04,09,11,18.30
2016,06,04,09,12,18.30
2016,06,04,09,13,18.30
2016,06,04,09,14,18.40
2016,06,04,09,15,18.50
2016,06,04,09,16,18.60
2016,06,04,09,17,18.70
2016,06,04,09,18,18.80
2016,06,04,09,19,18.80
2016,06,04,09,20,18.90
2016,06,04,09,21,19.00
2016,06,04,09,22,19.00
2016,06,04,09,23,19.00
2016,06,04,09,24,19.10
2016,06,04,09,25,19.10
2016,06,04,09,26,19.10
2016,06,04,09,27,19.20
2016,06,04,09,28,19.20
2016,06,04,09,29,19.30
2016,06,04,09,30,19.40
2016,06,04,09,31,19.50
2016,06,04,09,32,19.50
2016,06,04,09,33,19.60
2016,06,04,09,34,19.70
2016,06,04,09,35,19.90
2016,06,04,09,36,20.10
2016,06,04,09,37,20.20
2016,06,04,09,38,20.30
2016,06,04,09,39,20.30
2016,06,04,09,40,20.30
2016,06,04,09,41,20.30
2016,06,04,09,42,20.30
2016,06,04,09,43,20.20
2016,06,04,09,44,20.20
2016,06,04,09,45,20.30
2016,06,04,09,46,20.30
2016,06,04,09,47,20.20
2016,06,04,09,48,20.20
2016,06,04,09,49,20.20
2016,06,04,09,50,20.20
2016,06,04,09,51,20.30
2016,06,04,09,52,20.40
2016,06,04,09,53,20.40
2016,06,04,09,54,20.50
2016,06,04,09,55,20.50
2016,06,04,09,56,20.50
2016,06,04,09,57,20.50
2016,06,04,09,58,20.50
2016,06,04,09,59,20.50
2016,06,04,10,00,20.50
2016,06,04,10,01,20.50
2016,06,04,10,02,20.40
2016,06,04,10,03,20.40
2016,06,04,10,04,20.40
2016,06,04,10,05,20.40
2016,06,04,10,06,20.50
2016,06,04,10,07,20.60
2016,06,04,10,08,20.70
2016,06,04,10,09,20.80
2016,06,04,10,10,20.90
2016,06,04,10,11,21.00
2016,06,04,10,12,21.10
2016,06,04,10,13,21.10
2016,06,04,10,14,21.10
2016,06,04,10,15,21.20
2016,06,04,10,16,21.30
2016,06,04,10,17,21.40
2016,06,04,10,18,21.60
2016,06,04,10,19,21.70
2016,06,04,10,20,21.70
2016,06,04,10,21,21.70
2016,06,04,10,22,21.70
2016,06,04,10,23,21.70
2016,06,04,10,24,21.70
2016,06,04,10,25,21.80
2016,06,04,10,26,21.80
2016,06,04,10,27,21.90
2016,06,04,10,28,21.90
2016,06,04,10,29,22.00
2016,06,04,10,30,22.10
2016,06,04,10,31,22.10
2016,06,04,10,32,22.10
2016,06,04,10,33,22.20
2016,06,04,10,34,22.20
2016,06,04,10,35,22.20
2016,06,04,10,36,22.20
2016,06,04,10,37,22.20
2016,06,04,10,38,22.20
2016,06,04,10,39,22.20
2016,06,04,10,40,22.20
2016,06,04,10,41,22.20
2016,06,04,10,42,22.20
2016,06,04,10,43,22.20
2016,06,04,10,44,22.20
2016,06,04,10,45,22.20
2016,06,04,10,46,22.20
2016,06,04,10,47,22.20
2016,06,04,10,48,22.20
2016,06,04,10,49,22.30
2016,06,04,10,50,22.40
2016,06,04,10,51,22.50
2016,06,04,10,52,22.50
2016,06,04,10,53,22.50
2016,06,04,10,54,22.50
2016,06,04,10,55,22.60
2016,06,04,10,56,22.60
2016,06,04,10,57,22.70
2016,06,04,10,58,22.70
2016,06,04,10,59,22.70
2016,06,04,11,00,22.70
2016,06,04,11,01,22.70
2016,06,04,11,02,22.70
2016,06,04,11,03,22.70
2016,06,04,11,04,22.80
2016,06,04,11,05,22.80
2016,06,04,11,06,22.90
2016,06,04,11,07,22.90
2016,06,04,11,08,23.00
2016,06,04,11,09,23.00
2016,06,04,11,10,23.00
2016,06,04,11,11,23.10
2016,06,04,11,12,23.20
2016,06,04,11,13,23.30
2016,06,04,11,14,23.40
2016,06,04,11,15,23.40
2016,06,04,11,16,23.50
2016,06,04,11,17,23.70
2016,06,04,11,18,23.80
2016,06,04,11,19,24.00
2016,06,04,11,20,24.10
2016,06,04,11,21,24.20
2016,06,04,11,22,24.30
2016,06,04,11,23,24.30
2016,06,04,11,24,24.30
2016,06,04,11,25,24.30
2016,06,04,11,26,24.30
2016,06,04,11,27,24.30
2016,06,04,11,28,24.30
2016,06,04,11,29,24.30
2016,06,04,11,30,24.20
2016,06,04,11,31,24.10
2016,06,04,11,32,24.00
2016,06,04,11,33,23.90
2016,06,04,11,34,23.90
2016,06,04,11,35,23.90
2016,06,04,11,36,23.90
2016,06,04,11,37,23.90
2016,06,04,11,38,24.00
2016,06,04,11,39,24.00
2016,06,04,11,40,24.10
2016,06,04,11,41,24.10
2016,06,04,11,42,24.10
2016,06,04,11,43,24.10
2016,06,04,11,44,24.10
2016,06,04,11,45,24.10
2016,06,04,11,46,24.10
2016,06,04,11,47,24.20
2016,06,04,11,48,24.20
2016,06,04,11,49,24.30
2016,06,04,11,50,24.30
2016,06,04,11,51,24.20
2016,06,04,11,52,24.30
2016,06,04,11,53,24.30
2016,06,04,11,54,24.40
2016,06,04,11,55,24.40
2016,06,04,11,56,24.40
2016,06,04,11,57,24.50
2016,06,04,11,58,24.50
2016,06,04,11,59,24.60
2016,06,04,12,00,24.70
2016,06,04,12,01,24.70
2016,06,04,12,02,24.70
2016,06,04,12,03,24.70
2016,06,04,12,04,24.70
2016,06,04,12,05,24.70
2016,06,04,12,06,24.70
2016,06,04,12,07,24.70
2016,06,04,12,08,24.80
2016,06,04,12,09,24.80
2016,06,04,12,10,24.80
2016,06,04,12,11,24.80
2016,06,04,12,12,24.80
2016,06,04,12,13,24.80
2016,06,04,12,14,24.80
2016,06,04,12,15,24.80
2016,06,04,12,16,24.80
2016,06,04,12,17,24.80
2016,06,04,12,18,24.80
2016,06,04,12,19,24.70
2016,06,04,12,20,24.70
2016,06,04,12,21,24.70
2016,06,04,12,22,24.70
2016,06,04,12,23,24.80
2016,06,04,12,24,24.80
2016,06,04,12,25,24.90
2016,06,04,12,26,25.00
2016,06,04,12,27,25.10
2016,06,04,12,28,25.10
2016,06,04,12,29,25.20
2016,06,04,12,30,25.30
2016,06,04,12,31,25.30
2016,06,04,12,32,25.30
2016,06,04,12,33,25.30
2016,06,04,12,34,25.30
2016,06,04,12,35,25.30
2016,06,04,12,36,25.30
2016,06,04,12,37,25.30
2016,06,04,12,38,25.30
2016,06,04,12,39,25.30
2016,06,04,12,40,25.30
2016,06,04,12,41,25.30
2016,06,04,12,42,25.30
2016,06,04,12,43,25.30
2016,06,04,12,44,25.40
2016,06,04,12,45,25.40
2016,06,04,12,46,25.50
2016,06,04,12,47,25.60
2016,06,04,12,48,25.60
2016,06,04,12,49,25.70
2016,06,04,12,50,25.70
2016,06,04,12,51,25.70
2016,06,04,12,52,25.80
2016,06,04,12,53,25.80
2016,06,04,12,54,25.80
2016,06,04,12,55,25.80
2016,06,04,12,56,25.80
2016,06,04,12,57,25.70
2016,06,04,12,58,25.70
2016,06,04,12,59,25.70
2016,06,04,13,00,25.70
2016,06,04,13,01,25.70
2016,06,04,13,02,25.80
2016,06,04,13,03,25.80
2016,06,04,13,04,25.90
2016,06,04,13,05,25.90
2016,06,04,13,06,25.90
2016,06,04,13,07,26.00
2016,06,04,13,08,26.10
2016,06,04,13,09,26.10
2016,06,04,13,10,26.20
2016,06,04,13,11,26.20
2016,06,04,13,12,26.20
2016,06,04,13,13,26.20
2016,06,04,13,14,26.20
2016,06,04,13,15,26.20
2016,06,04,13,16,26.10
2016,06,04,13,17,26.10
2016,06,04,13,18,26.10
2016,06,04,13,19,26.20
2016,06,04,13,20,26.20
2016,06,04,13,21,26.20
2016,06,04,13,22,26.20
2016,06,04,13,23,26.30
2016,06,04,13,24,26.30
2016,06,04,13,25,26.30
2016,06,04,13,26,26.30
2016,06,04,13,27,26.30
2016,06,04,13,28,26.30
2016,06,04,13,29,26.40
2016,06,04,13,30,26.40
2016,06,04,13,31,26.40
2016,06,04,13,32,26.40
2016,06,04,13,33,26.50
2016,06,04,13,34,26.50
2016,06,04,13,35,26.60
2016,06,04,13,36,26.60
2016,06,04,13,37,26.60
2016,06,04,13,38,26.70
2016,06,04,13,39,26.70
2016,06,04,13,40,26.70
2016,06,04,13,41,26.70
2016,06,04,13,42,26.80
2016,06,04,13,43,26.80
2016,06,04,13,44,26.80
2016,06,04,13,45,26.90
2016,06,04,13,46,26.90
2016,06,04,13,47,26.90
2016,06,04,13,48,27.00
2016,06,04,13,49,27.00
2016,06,04,13,50,27.10
2016,06,04,13,51,27.10
2016,06,04,13,52,27.20
2016,06,04,13,53,27.10
2016,06,04,13,54,27.10
2016,06,04,13,55,27.20
2016,06,04,13,56,27.20
2016,06,04,13,57,27.20
2016,06,04,13,58,27.20
2016,06,04,13,59,27.20
2016,06,04,14,00,27.20
2016,06,04,14,01,27.30
2016,06,04,14,02,27.30
2016,06,04,14,03,27.30
2016,06,04,14,04,27.30
2016,06,04,14,05,27.30
2016,06,04,14,06,27.30
2016,06,04,14,07,27.40
2016,06,04,14,08,27.40
2016,06,04,14,09,27.40
2016,06,04,14,10,27.50
2016,06,04,14,11,27.60
2016,06,04,14,12,27.60
2016,06,04,14,13,27.60
2016,06,04,14,14,27.50
2016,06,04,14,15,27.40
2016,06,04,14,16,27.40
2016,06,04,14,17,27.40
2016,06,04,14,18,27.50
2016,06,04,14,19,27.60
2016,06,04,14,20,27.60
2016,06,04,14,21,27.60
2016,06,04,14,22,27.50
2016,06,04,14,23,27.40
2016,06,04,14,24,27.40
2016,06,04,14,25,27.40
2016,06,04,14,26,27.40
2016,06,04,14,27,27.40
2016,06,04,14,28,27.40
2016,06,04,14,29,27.50
2016,06,04,14,30,27.60
2016,06,04,14,31,27.70
2016,06,04,14,32,27.80
2016,06,04,14,33,27.80
2016,06,04,14,34,27.80
2016,06,04,14,35,27.80
2016,06,04,14,36,27.80
2016,06,04,14,37,27.80
2016,06,04,14,38,27.80
2016,06,04,14,39,27.80
2016,06,04,14,40,27.80
2016,06,04,14,41,27.80
2016,06,04,14,42,27.90
2016,06,04,14,43,27.90
2016,06,04,14,44,28.00
2016,06,04,14,45,28.10
2016,06,04,14,46,28.10
2016,06,04,14,47,28.10
2016,06,04,14,48,28.10
2016,06,04,14,49,28.10
2016,06,04,14,50,28.10
2016,06,04,14,51,28.10
2016,06,04,14,52,28.10
2016,06,04,14,53,28.10
2016,06,04,14,54,28.20
2016,06,04,14,55,28.20
2016,06,04,14,56,28.20
2016,06,04,14,57,28.30
2016,06,04,14,58,28.30
2016,06,04,14,59,28.40
2016,06,04,15,00,28.50
2016,06,04,15,01,28.50
2016,06,04,15,02,28.50
2016,06,04,15,03,28.50
2016,06,04,15,04,28.50
2016,06,04,15,05,28.60
2016,06,04,15,06,28.60
2016,06,04,15,07,28.70
2016,06,04,15,08,28.60
2016,06,04,15,09,28.60
2016,06,04,15,10,28.60
2016,06,04,15,11,28.60
2016,06,04,15,12,28.60
2016,06,04,15,13,28.60
2016,06,04,15,14,28.60
2016,06,04,15,15,28.70
2016,06,04,15,16,28.80
2016,06,04,15,17,28.80
2016,06,04,15,18,28.80
2016,06,04,15,19,28.80
2016,06,04,15,20,28.80
2016,06,04,15,21,28.80
2016,06,04,15,22,28.80
2016,06,04,15,23,28.80
2016,06,04,15,24,28.80
2016,06,04,15,25,28.90
2016,06,04,15,26,28.90
2016,06,04,15,27,29.00
2016,06,04,15,28,29.10
2016,06,04,15,29,29.10
2016,06,04,15,30,29.00
2016,06,04,15,31,29.00
2016,06,04,15,32,29.00
2016,06,04,15,33,29.10
2016,06,04,15,34,29.10
2016,06,04,15,35,29.20
2016,06,04,15,36,29.20
2016,06,04,15,37,29.20
2016,06,04,15,38,29.20
2016,06,04,15,39,29.10
2016,06,04,15,40,29.00
2016,06,04,15,41,29.00
2016,06,04,15,42,28.90
2016,06,04,15,43,29.00
2016,06,04,15,44,29.00
2016,06,04,15,45,29.10
2016,06,04,15,46,29.10
2016,06,04,15,47,29.10
2016,06,04,15,48,29.10
2016,06,04,15,49,29.20
2016,06,04,15,50,29.20
2016,06,04,15,51,29.30
2016,06,04,15,52,29.30
2016,06,04,15,53,29.30
2016,06,04,15,54,29.30
2016,06,04,15,55,29.20
2016,06,04,15,56,29.20
2016,06,04,15,57,29.20
2016,06,04,15,58,29.20
2016,06,04,15,59,29.20
2016,06,04,16,00,29.20
2016,06,04,16,01,29.30
2016,06,04,16,02,29.30
2016,06,04,16,03,29.30
2016,06,04,16,04,29.30
2016,06,04,16,05,29.40
2016,06,04,16,06,29.40
2016,06,04,16,07,29.40
2016,06,04,16,08,29.40
2016,06,04,16,09,29.40
2016,06,04,16,10,29.40
2016,06,04,16,11,29.40
2016,06,04,16,12,29.40
2016,06,04,16,13,29.40
2016,06,04,16,14,29.40
2016,06,04,16,15,29.40
2016,06,04,16,16,29.40
2016,06,04,16,17,29.40
2016,06,04,16,18,29.50
2016,06,04,16,19,29.50
2016,06,04,16,20,29.50
2016,06,04,16,21,29.50
2016,06,04,16,22,29.50
2016,06,04,16,23,29.40
2016,06,04,16,24,29.40
2016,06,04,16,25,29.30
2016,06,04,16,26,29.30
2016,06,04,16,27,29.30
2016,06,04,16,28,29.40
2016,06,04,16,29,29.40
2016,06,04,16,30,29.40
2016,06,04,16,31,29.40
2016,06,04,16,32,29.40
2016,06,04,16,33,29.40
2016,06,04,16,34,29.50
2016,06,04,16,35,29.60
2016,06,04,16,36,29.60
2016,06,04,16,37,29.60
2016,06,04,16,38,29.60
2016,06,04,16,39,29.60
2016,06,04,16,40,29.60
2016,06,04,16,41,29.70
2016,06,04,16,42,29.70
2016,06,04,16,43,29.70
2016,06,04,16,44,29.60
2016,06,04,16,45,29.60
2016,06,04,16,46,29.70
2016,06,04,16,47,29.70
2016,06,04,16,48,29.70
2016,06,04,16,49,29.60
2016,06,04,16,50,29.60
2016,06,04,16,51,29.50
2016,06,04,16,52,29.50
2016,06,04,16,53,29.40
2016,06,04,16,54,29.40
2016,06,04,16,55,29.40
2016,06,04,16,56,29.30
2016,06,04,16,57,29.40
2016,06,04,16,58,29.40
2016,06,04,16,59,29.40
2016,06,04,17,00,29.40
2016,06,04,17,01,29.30
2016,06,04,17,02,29.30
2016,06,04,17,03,29.30
2016,06,04,17,04,29.30
2016,06,04,17,05,29.30
2016,06,04,17,06,29.30
2016,06,04,17,07,29.40
2016,06,04,17,08,29.50
2016,06,04,17,09,29.50
2016,06,04,17,10,29.60
2016,06,04,17,11,29.50
2016,06,04,17,12,29.50
2016,06,04,17,13,29.40
2016,06,04,17,14,29.40
2016,06,04,17,15,29.40
2016,06,04,17,16,29.30
2016,06,04,17,17,29.30
2016,06,04,17,18,29.30
2016,06,04,17,19,29.20